Location: Drocourt
(49.0571°N, 1.7669°E)
Time: 21:13:25
(UTC+00:00)

Transit 4A - Pass Details

Date: 19 April 2024
Orbit: 871 x 971 km, 66.8° (Epoch: 18 May)

Event Time Altitude Azimuth Distance (km) Brightness Sun altitude
Rises 18:34:40 0° 320° (NW) 3,481 12.0 1.8°
Reaches altitude 10° 18:38:04 10° 339° (NNW) 2,533 10.8 1.3°
Maximum altitude 18:41:55 18° 21° (NNE) 2,033 9.7 0.7°
Drops below altitude 10° 18:45:46 10° 63° (ENE) 2,528 9.8 0.1°
Sets 18:49:09 0° 82° (E) 3,471 10.3 -0.4°
